GFSFLT2_sfc_dewp_057.txt.gz
Dewpoint
19 18 23 25 24 21 20 19 15 10 11 15 32 36 45 45 45 50 53 54 57 57 58 61 64 66 68 71 73 74 72 75
16 22 24 23 25 21 20 24 23 17 19 10 19 29 35 39 42 50 55 54 55 58 59 60 61 63 67 69 72 73 73 74
16 23 21 21 23 26 25 20 21 21 18 24 23 22 31 35 40 43 49 52 54 57 59 60 61 62 64 67 70 71 72 73
13 18 19 18 17 17 25 29 23 22 20 22 23 20 26 34 38 39 43 49 53 54 57 60 61 62 63 64 65 69 71 73
13 12 16 18 20 25 22 22 29 22 22 26 26 26 27 29 32 40 42 45 50 52 55 59 61 63 62 63 63 65 70 70
9 15 16 17 19 22 23 23 23 24 27 28 30 30 31 33 34 37 43 46 46 51 55 59 62 66 66 63 63 63 65 67
14 14 13 14 18 22 27 30 32 29 28 32 32 33 34 35 37 39 40 42 46 48 58 65 65 68 68 65 66 65 67 67
19 14 12 12 11 14 21 24 27 29 30 33 35 40 38 35 40 40 42 43 44 50 54 57 61 67 69 69 68 67 69 68
20 14 13 10 8 7 11 16 20 24 31 34 35 38 42 42 44 47 50 50 52 53 52 54 57 63 66 70 69 70 71 71
29 22 14 12 8 9 11 13 21 24 28 31 34 41 44 54 54 55 55 56 57 57 57 58 55 56 62 66 72 71 72 73
28 23 19 11 23 36 37 32 30 25 27 28 31 34 41 48 56 58 59 60 61 60 60 62 62 59 59 64 71 71 72 73
29 23 19 17 35 36 39 31 33 40 29 29 33 34 39 55 57 58 60 62 64 64 64 64 65 64 62 59 67 71 72 73
30 27 20 34 35 34 34 36 43 42 42 41 41 48 51 51 53 56 59 63 65 68 66 67 67 66 67 63 65 70 72 73
32 29 25 40 34 31 40 41 40 45 44 44 46 46 46 49 51 53 57 57 61 68 67 67 67 67 70 70 68 73 73 74
29 30 39 42 42 44 43 42 42 46 44 45 45 44 45 47 51 52 55 56 59 65 70 70 68 66 70 71 74 74 75 75
37 37 40 41 42 43 43 42 45 48 46 45 46 46 45 48 51 53 55 56 59 62 66 70 71 73 72 72 75 76 76 76
37 39 40 41 43 43 43 46 48 49 47 46 46 47 48 49 52 55 57 57 58 59 61 62 65 67 69 72 75 72 75 74
34 39 39 40 42 44 44 47 48 48 48 48 48 49 49 51 53 57 57 57 57 57 58 59 60 61 64 67 73 74 73 72
39 41 42 42 43 44 44 47 47 47 48 48 49 50 50 52 56 56 56 56 57 57 57 59 59 60 61 64 67 74 74 73

GFSFLT2_sfc_dewp_060.txt.gz
Dewpoint
14 13 19 24 22 19 18 18 18 16 16 16 18 28 43 51 54 59 59 58 57 59 60 63 63 64 67 70 72 73 72 73
14 16 18 17 21 21 21 22 23 19 24 16 23 25 36 50 52 57 59 60 61 58 60 62 63 65 66 69 71 73 73 73
15 18 16 17 19 21 21 23 21 20 21 28 33 28 32 46 53 56 56 62 66 65 59 61 63 64 65 66 71 73 73 73
15 15 15 18 21 18 20 27 26 23 19 24 28 26 26 28 37 55 58 62 64 63 60 60 61 63 65 66 67 71 73 73
15 14 14 15 17 19 17 17 28 26 22 24 29 33 30 27 28 53 56 58 59 61 62 59 60 63 63 65 65 69 72 72
15 16 16 17 14 15 16 15 17 18 25 31 30 32 33 33 36 38 53 60 59 58 63 61 62 64 65 64 65 66 69 71
17 14 12 13 14 14 16 21 22 21 23 28 38 43 44 44 46 41 42 50 47 54 60 62 65 66 66 65 66 66 68 69
21 20 16 13 13 13 15 20 22 23 30 33 36 44 42 46 51 56 46 42 51 55 59 63 66 67 67 67 66 67 68 69
26 23 23 16 15 14 15 16 20 24 29 32 33 37 43 45 49 58 57 52 58 59 59 63 65 67 68 68 68 69 69 70
30 28 25 27 20 14 14 14 12 16 20 24 29 34 37 41 51 56 60 59 60 57 60 62 67 68 67 69 71 71 70 71
28 26 25 21 21 30 32 20 19 37 35 36 28 26 34 54 59 60 59 59 61 60 61 66 66 66 67 68 69 69 71 71
30 23 18 21 33 33 32 26 40 42 43 43 44 35 42 51 53 56 60 59 62 64 64 65 66 65 66 65 70 70 69 72
29 29 24 35 33 33 26 26 40 41 42 43 44 49 50 49 51 54 55 59 60 62 65 68 70 68 68 67 67 71 71 71
33 28 27 37 35 30 40 41 40 41 42 43 46 46 47 47 50 53 55 56 58 60 65 71 74 72 70 70 69 72 74 73
31 29 43 42 41 41 41 41 41 41 42 43 45 46 46 47 50 53 55 56 57 59 62 64 68 72 73 73 73 72 76 74
35 37 39 40 41 42 41 42 43 44 43 44 46 45 46 47 50 52 56 57 56 57 58 60 62 65 69 70 75 75 72 75
37 39 39 40 41 41 42 42 42 44 47 48 46 46 47 48 51 53 57 57 58 58 57 57 59 63 64 66 69 73 75 75
34 39 39 39 42 43 41 42 44 47 48 49 48 48 50 50 53 56 56 56 58 57 56 57 57 59 61 63 65 70 75 74
38 40 42 42 42 43 42 44 46 46 48 50 49 50 51 52 54 55 55 55 56 57 57 57 57 57 59 62 62 66 71 76

GFSFLT2_sfc_dewp_063.txt.gz
Dewpoint
16 15 18 22 24 19 18 18 18 20 21 19 20 52 56 53 54 55 62 64 61 59 59 58 61 63 65 67 67 69 69 67
14 14 15 15 19 19 19 16 18 20 21 24 24 20 50 54 56 60 63 65 65 64 62 61 60 63 64 67 68 69 69 69
17 15 15 17 17 19 18 21 19 18 20 24 26 32 49 52 56 59 59 62 65 66 64 63 61 61 64 67 68 68 68 70
16 16 15 14 14 19 20 19 24 26 25 27 26 28 41 50 53 58 57 59 64 64 62 63 61 61 62 65 68 69 69 69
17 13 17 17 16 15 18 19 18 21 23 29 36 38 40 44 54 56 56 60 59 60 61 59 60 60 62 63 68 69 70 69
16 18 19 17 15 13 16 15 17 17 20 18 37 37 39 42 53 57 56 58 58 55 55 54 55 59 61 62 64 69 70 70
18 17 18 17 14 12 13 16 17 18 19 29 35 36 39 43 52 56 59 59 58 55 55 65 61 64 63 62 63 65 70 70
26 21 19 18 20 21 14 14 14 17 20 30 32 34 37 39 46 54 60 59 62 61 60 62 61 61 64 62 64 64 67 69
26 26 25 25 23 21 19 15 15 14 18 30 41 32 36 55 57 58 58 59 59 62 64 64 66 67 67 66 65 64 65 68
27 28 23 26 27 28 25 27 25 22 41 42 44 45 49 50 54 56 58 59 60 62 61 64 66 68 69 69 68 68 66 66
27 24 23 24 24 31 30 33 39 40 41 42 44 45 46 47 51 53 55 57 59 60 62 63 64 65 67 66 67 67 67 67
32 25 19 24 31 31 31 28 38 38 39 42 44 42 44 46 49 52 55 55 56 58 60 62 64 68 68 66 68 66 67 68
31 29 26 33 34 33 28 31 40 39 39 40 42 45 46 47 48 51 54 55 57 58 58 61 65 66 71 69 66 69 70 70
33 29 26 40 38 35 39 40 40 40 40 40 42 44 46 46 48 50 52 56 56 56 58 59 62 63 65 68 69 70 69 71
36 34 40 39 39 41 40 39 40 41 41 41 42 43 46 46 47 50 53 55 55 56 57 57 58 59 62 63 65 66 70 72
33 37 38 38 40 41 40 40 39 41 41 42 44 44 47 45 47 51 53 56 56 56 55 56 57 57 58 60 62 63 68 71
34 36 36 39 40 42 42 41 39 41 42 45 47 48 47 46 49 52 53 56 57 57 56 56 57 57 57 58 60 61 65 71
33 37 38 38 41 42 42 41 41 43 44 46 47 47 48 49 50 53 55 55 55 57 56 56 56 56 56 57 59 60 62 69
38 40 41 42 43 42 42 42 42 44 45 46 47 50 51 51 51 54 55 54 54 55 55 55 55 53 54 56 57 59 60 63

GFSFLT2_sfc_dewp_069.txt.gz
Dewpoint
17 16 17 17 19 21 19 19 16 18 19 23 37 43 52 55 58 61 59 59 59 56 57 59 61 61 64 66 65 66 66 67
17 17 16 15 16 17 19 16 15 18 19 22 37 39 52 52 57 59 61 59 59 57 57 59 60 61 63 65 65 65 66 66
16 16 16 16 15 15 17 19 17 17 20 33 38 40 42 50 53 56 56 59 61 60 57 59 60 60 62 64 65 65 65 65
17 20 18 17 16 14 12 14 19 21 27 29 32 39 52 57 58 57 57 59 62 62 61 61 62 61 62 62 65 65 66 65
12 15 18 17 18 19 14 17 14 17 18 27 38 53 54 57 59 60 61 61 62 63 64 64 64 64 65 64 65 66 66 66
15 17 18 18 20 18 17 16 17 15 16 36 47 53 54 54 57 58 60 62 63 63 63 63 64 63 63 65 65 66 66 66
23 26 26 25 25 25 22 20 17 17 21 38 41 50 52 51 54 56 58 59 60 60 61 64 64 62 62 63 66 66 66 66
27 27 26 25 25 24 24 22 23 27 26 41 43 48 49 50 51 53 55 56 58 60 61 61 62 65 66 66 65 66 66 66
22 26 24 19 25 25 33 38 34 26 37 42 41 44 46 49 50 52 54 55 57 58 60 62 63 65 66 67 67 67 66 67
24 25 16 21 26 28 36 37 38 37 38 40 40 41 44 43 45 50 54 55 56 57 59 61 63 64 65 68 68 67 68 67
24 23 23 25 29 30 32 36 38 38 39 39 40 42 44 43 44 45 51 55 57 57 58 61 62 62 65 68 67 64 65 67
26 21 22 25 37 38 37 31 39 39 39 39 40 37 43 42 42 44 46 52 56 56 57 58 59 60 63 64 64 64 66 68
26 23 28 37 37 39 27 28 39 40 39 39 37 39 41 42 42 43 45 47 55 56 56 55 59 59 60 61 60 62 64 64
30 26 23 37 36 33 36 37 38 39 39 39 39 40 40 41 42 44 45 47 53 55 57 56 57 57 58 58 59 61 62 63
31 30 37 37 35 37 39 38 37 37 38 37 37 37 39 41 42 46 46 47 50 55 56 55 56 56 55 56 57 58 60 61
29 30 34 37 37 39 39 39 40 40 40 38 36 37 39 41 42 46 46 47 50 53 54 56 55 56 55 55 54 55 57 59
28 31 33 37 39 38 40 41 39 38 39 39 37 38 40 43 43 45 46 48 50 52 55 55 54 54 54 53 53 52 53 57
27 31 31 32 37 39 40 40 40 41 41 42 42 41 43 43 45 46 46 49 51 53 54 52 50 50 51 51 51 52 52 54
32 34 36 36 39 40 41 42 41 41 43 42 42 43 43 44 46 48 49 49 53 53 52 50 47 48 49 49 50 50 51 53

GFSFLT2_sfc_dewp_075.txt.gz
Dewpoint
18 18 20 23 25 21 20 21 19 21 26 31 45 52 55 57 59 60 60 59 61 61 61 62 63 65 67 68 69 69 69 71
17 18 19 22 21 21 23 23 21 24 30 30 48 51 53 55 57 59 61 62 61 62 61 62 62 64 65 67 69 70 69 70
19 19 19 19 18 22 23 22 20 22 28 47 50 51 52 55 57 59 61 61 63 62 61 62 63 63 64 65 67 67 68 70
17 19 20 20 19 17 21 25 24 24 28 47 50 50 51 53 55 57 60 62 64 64 62 62 63 63 63 65 65 66 68 69
16 17 20 21 21 19 18 21 25 21 26 46 48 49 50 51 53 55 57 59 61 63 65 66 63 63 62 65 63 64 68 67
12 20 22 22 21 21 18 19 21 21 24 44 46 47 48 50 52 53 55 56 58 59 62 64 65 68 66 64 63 64 65 66
26 24 23 23 21 19 17 21 20 23 28 43 46 47 47 47 48 49 50 52 55 56 58 61 63 64 66 67 68 66 66 66
26 25 23 20 22 22 20 20 21 23 33 43 46 47 45 44 44 44 45 47 50 54 56 56 60 61 62 65 67 68 68 67
23 26 22 15 21 22 25 33 27 23 33 40 41 44 41 38 37 39 40 44 47 50 53 57 58 60 60 62 67 69 69 68
23 22 15 22 29 27 29 35 38 38 39 39 39 39 41 41 42 41 41 42 44 46 49 53 56 58 59 62 64 67 69 69
25 18 21 23 27 30 27 27 38 37 39 39 39 39 41 43 42 41 42 41 43 44 47 51 53 57 59 60 62 62 64 66
31 20 14 24 35 37 37 24 39 40 39 38 38 30 40 41 40 41 41 42 43 44 46 47 51 54 57 56 59 60 60 62
28 27 24 32 36 38 26 30 39 39 39 38 37 38 40 40 40 41 41 42 43 44 47 48 50 53 56 57 57 58 59 59
32 29 26 38 36 33 37 39 37 37 37 38 38 39 39 40 40 41 40 41 42 43 45 46 48 51 54 56 59 58 57 57
34 33 38 39 36 38 38 36 38 39 37 38 38 38 39 39 40 39 40 41 41 42 44 46 47 49 52 55 58 58 56 56
31 33 38 40 38 38 39 38 39 39 38 38 37 38 38 39 39 40 40 41 41 42 43 45 47 48 50 54 57 56 55 54
35 34 35 37 37 38 40 40 39 39 39 38 39 39 39 40 41 42 44 44 44 44 44 45 47 48 49 52 56 53 53 52
35 37 36 35 39 41 40 40 40 40 37 40 41 41 41 41 43 44 45 47 47 48 48 48 49 51 51 53 54 52 51 50
34 38 37 39 40 41 40 40 40 41 40 41 42 42 42 43 44 45 45 46 46 46 45 47 47 50 51 52 49 50 50 50

GFSFLT2_sfc_dewp_078.txt.gz
Dewpoint
18 19 24 31 26 23 21 21 20 24 37 43 48 52 56 57 59 60 57 60 60 61 61 62 63 65 66 68 70 71 70 72
17 18 20 27 28 23 22 25 23 23 32 38 48 51 54 55 58 61 60 62 60 61 61 62 62 64 66 67 69 70 70 70
19 21 21 22 24 25 21 21 21 23 30 49 49 52 53 55 57 60 62 63 64 61 62 62 62 63 64 66 68 69 70 70
19 19 21 22 24 26 22 27 23 23 38 48 50 51 52 54 56 58 60 61 63 65 65 62 63 63 63 64 64 67 69 71
16 16 21 22 22 23 22 25 27 19 37 47 50 51 53 53 54 55 56 57 60 62 64 66 66 65 63 64 63 64 68 67
15 21 21 22 19 20 21 21 25 24 41 45 47 49 51 52 52 51 53 55 56 58 60 62 65 66 67 66 64 64 64 66
23 21 20 19 17 17 22 25 25 28 39 43 46 47 48 48 49 49 49 50 52 54 57 59 59 62 64 66 67 68 67 66
24 21 20 17 19 19 17 19 25 29 38 43 47 46 43 43 43 43 44 45 48 50 53 54 57 59 60 62 65 69 70 69
19 21 17 12 15 17 19 20 20 24 35 41 43 43 42 41 42 42 41 42 43 44 47 50 53 56 58 60 63 64 69 70
20 21 11 24 26 21 21 29 29 35 37 39 40 41 42 45 45 44 44 43 43 41 44 47 47 51 58 60 62 62 62 63
19 14 20 20 25 23 26 31 33 35 37 37 38 38 42 44 43 43 43 42 43 42 44 48 48 49 53 56 59 62 60 61
24 20 15 25 32 34 30 28 37 36 37 36 36 27 42 42 41 41 42 42 43 43 43 45 48 47 50 51 54 58 59 61
24 25 21 31 33 33 21 33 39 38 39 38 34 38 41 41 41 42 42 43 43 44 44 46 47 47 49 52 52 56 58 59
29 28 27 35 34 29 39 41 38 38 38 38 38 39 39 40 41 42 41 42 42 43 44 46 47 48 49 51 54 57 57 58
30 33 39 39 39 41 37 37 38 38 37 38 37 37 38 39 41 41 42 43 43 42 44 46 47 48 49 51 53 55 57 57
32 31 37 39 39 39 37 36 38 38 38 38 37 38 39 40 41 41 43 44 45 46 46 47 48 49 50 51 52 53 55 56
35 34 34 38 39 37 38 38 37 37 37 37 38 38 40 41 42 42 44 44 45 46 46 46 47 48 50 52 53 51 53 53
33 32 36 33 38 40 39 39 38 37 37 38 40 40 41 41 42 43 43 44 45 45 46 46 46 47 49 50 52 53 53 49
35 38 36 37 39 40 38 39 38 37 39 38 39 40 40 40 41 41 42 44 44 45 44 45 45 46 47 49 49 48 49 51